This is the latest recevied weather packets stored in our database for station/object KD9WYV. If no packets are shown the sender has not sent any weather packets the latest 1 day(s).
| Time | Temp. | Humidity | Pressure | Rain* | Wind** | Luminosity | Snow |
|---|---|---|---|---|---|---|---|
| 1778044503 | 7.78° C | 96% | 1011 hPa | 1.78 mm | 0 m/s | 0 W/m² | - |
| 1778044200 | 7.78° C | 96% | 1010.6 hPa | 1.27 mm | 0.89 m/s, 358° | 0 W/m² | - |
| 1778043898 | 7.78° C | 96% | 1011.3 hPa | 1.27 mm | 0.45 m/s, 341° | 0 W/m² | - |
| 1778043595 | 7.78° C | 96% | 1011.5 hPa | 0 mm | 0.45 m/s, 359° | 0 W/m² | - |
| 1778043291 | 7.78° C | 96% | 1011.2 hPa | 1.78 mm | 0.45 m/s, 351° | 0 W/m² | - |
| 1778042988 | 7.78° C | 96% | 1011 hPa | 1.78 mm | 0.45 m/s, 335° | 0 W/m² | - |
| 1778042686 | 7.78° C | 96% | 1011 hPa | 0 mm | 0.45 m/s, 333° | 0 W/m² | - |
| 1778042383 | 7.78° C | 96% | 1010.3 hPa | 0 mm | 0.89 m/s, 320° | 0 W/m² | - |
| 1778042080 | 7.78° C | 96% | 1010.3 hPa | 1.27 mm | 0.45 m/s, 327° | 0 W/m² | - |
| 1778041778 | 7.78° C | 96% | 1010.6 hPa | 1.27 mm | 1.34 m/s, 41° | 0 W/m² | - |
| 1778041477 | 7.78° C | 96% | 1010.2 hPa | 1.27 mm | 0.45 m/s, 350° | 0 W/m² | - |
| 1778041174 | 7.78° C | 96% | 1009.9 hPa | 0 mm | 2.68 m/s, 11° | 0 W/m² | - |
| 1778040872 | 7.78° C | 96% | 1010 hPa | 0 mm | 0.45 m/s, 8° | 0 W/m² | - |
| 1778040569 | 7.78° C | 96% | 1010 hPa | 0 mm | 1.79 m/s, 62° | 0 W/m² | - |
| 1778040267 | 7.78° C | 96% | 1010.1 hPa | 1.78 mm | 0.89 m/s, 52° | 0 W/m² | - |
| 1778039962 | 7.78° C | 96% | 1009.8 hPa | 1.78 mm | 0.45 m/s, 5° | 0 W/m² | - |
| 1778039660 | 7.78° C | 96% | 1010.1 hPa | 0 mm | 0 m/s | 0 W/m² | - |
| 1778039357 | 7.78° C | 96% | 1010.1 hPa | 1.27 mm | 1.79 m/s, 46° | 0 W/m² | - |
| 1778039054 | 7.78° C | 96% | 1010.2 hPa | 4.83 mm | 0.45 m/s, 349° | 0 W/m² | - |
| 1778038751 | 7.78° C | 96% | 1010.6 hPa | 6.6 mm | 0 m/s | 0 W/m² | - |
| 1778038448 | 7.78° C | 96% | 1010.8 hPa | 7.87 mm | 0.45 m/s, 39° | 0 W/m² | - |
| 1778038145 | 7.78° C | 97% | 1010.8 hPa | 6.1 mm | 0.45 m/s, 33° | 0 W/m² | - |
| 1778037842 | 7.78° C | 97% | 1011 hPa | 3.05 mm | 0.45 m/s, 354° | 0 W/m² | - |
| 1778037539 | 7.78° C | 97% | 1010.9 hPa | 1.78 mm | 0.89 m/s, 12° | 0 W/m² | - |
| 1778037236 | 8.33° C | 97% | 1010.2 hPa | 0 mm | 0.89 m/s, 339° | 0 W/m² | - |
* Rain latest hour (hover to see other rain measurements)
** Current wind speed in m/s (hover to see current wind gust speed)